contact:dominique.lefevre@mio.osupytheas.fr, maurice.libes@osupytheas.fr, didier.mallarino@osupytheas.fr
Project:EMSO http://www.emso-fr.org/EMSO-France
Depth: 2436.0 m
Title:EMSO Ligure Ouest : Data MII capteur MICROCAT
DateTime_Computer,Latitude,Longitude,Temperature,Conductivity,Pressure,DateTime_Instrument
DateTime_Computer,Latitude,Longitude,degC,S m-1,dbar,DateTime_Instrument
2022-11-28T00:00:24Z,42.805,6.029,13.3016,4.60068,2470.67,2022-11-28T02:02:23Z
2022-11-28T00:03:27Z,42.805,6.029,13.3015,4.60084,2470.661,2022-11-28T02:05:26Z
2022-11-28T00:06:30Z,42.805,6.029,13.3015,4.60066,2470.624,2022-11-28T02:08:29Z
2022-11-28T00:09:33Z,42.805,6.029,13.3018,4.60064,2470.633,2022-11-28T02:11:32Z
2022-11-28T00:12:36Z,42.805,6.029,13.3019,4.60066,2470.646,2022-11-28T02:14:35Z
2022-11-28T00:15:39Z,42.805,6.029,13.3018,4.60067,2470.624,2022-11-28T02:17:38Z
2022-11-28T00:18:42Z,42.805,6.029,13.3016,4.60066,2470.661,2022-11-28T02:20:42Z
2022-11-28T00:21:45Z,42.805,6.029,13.3017,4.60079,2470.646,2022-11-28T02:23:45Z
2022-11-28T00:24:48Z,42.805,6.029,13.3015,4.60077,2470.637,2022-11-28T02:26:48Z
2022-11-28T00:27:51Z,42.805,6.029,13.3018,4.60067,2470.661,2022-11-28T02:29:51Z
2022-11-28T00:30:55Z,42.805,6.029,13.3018,4.60067,2470.646,2022-11-28T02:32:54Z
2022-11-28T00:33:58Z,42.805,6.029,13.3015,4.60064,2470.646,2022-11-28T02:35:57Z
2022-11-28T00:37:01Z,42.805,6.029,13.3015,4.60066,2470.624,2022-11-28T02:39:00Z
2022-11-28T00:40:04Z,42.805,6.029,13.3015,4.60064,2470.624,2022-11-28T02:42:03Z
2022-11-28T00:43:07Z,42.805,6.029,13.3017,4.60067,2470.624,2022-11-28T02:45:06Z
2022-11-28T00:46:10Z,42.805,6.029,13.3016,4.60066,2470.624,2022-11-28T02:48:09Z
2022-11-28T00:49:13Z,42.805,6.029,13.3016,4.60074,2470.637,2022-11-28T02:51:12Z
2022-11-28T00:52:16Z,42.805,6.029,13.3014,4.60067,2470.637,2022-11-28T02:54:15Z
2022-11-28T00:55:19Z,42.805,6.029,13.3015,4.60087,2470.646,2022-11-28T02:57:18Z
2022-11-28T00:58:22Z,42.805,6.029,13.3016,4.60098,2470.624,2022-11-28T03:00:22Z
2022-11-28T01:01:25Z,42.805,6.029,13.3015,4.60093,2470.646,2022-11-28T03:03:25Z
2022-11-28T01:04:28Z,42.805,6.029,13.3017,4.60087,2470.646,2022-11-28T03:06:28Z
2022-11-28T01:07:31Z,42.805,6.029,13.3019,4.60081,2470.624,2022-11-28T03:09:31Z
2022-11-28T01:10:35Z,42.805,6.029,13.3020,4.60089,2470.624,2022-11-28T03:12:34Z
2022-11-28T01:13:38Z,42.805,6.029,13.3015,4.60084,2470.624,2022-11-28T03:15:37Z
2022-11-28T01:16:41Z,42.805,6.029,13.3014,4.60099,2470.6,2022-11-28T03:18:40Z
2022-11-28T01:19:44Z,42.805,6.029,13.3016,4.60075,2470.67,2022-11-28T03:21:43Z
2022-11-28T01:22:47Z,42.805,6.029,13.3019,4.60079,2470.6,2022-11-28T03:24:46Z
2022-11-28T01:25:50Z,42.805,6.029,13.3019,4.60081,2470.614,2022-11-28T03:27:49Z
2022-11-28T01:28:53Z,42.805,6.029,13.3018,4.60084,2470.614,2022-11-28T03:30:52Z
2022-11-28T01:31:56Z,42.805,6.029,13.3030,4.60077,2470.6,2022-11-28T03:33:55Z
2022-11-28T01:34:59Z,42.805,6.029,13.3032,4.60095,2470.624,2022-11-28T03:36:58Z
2022-11-28T01:38:02Z,42.805,6.029,13.3042,4.60107,2470.614,2022-11-28T03:40:02Z
2022-11-28T01:41:05Z,42.805,6.029,13.3054,4.60098,2470.614,2022-11-28T03:43:05Z
2022-11-28T01:44:08Z,42.805,6.029,13.3039,4.60117,2470.614,2022-11-28T03:46:08Z
2022-11-28T01:47:11Z,42.805,6.029,13.3043,4.60150,2470.614,2022-11-28T03:49:11Z
2022-11-28T01:50:15Z,42.805,6.029,13.3054,4.60117,2470.637,2022-11-28T03:52:14Z
2022-11-28T01:53:18Z,42.805,6.029,13.3069,4.60117,2470.577,2022-11-28T03:55:17Z
2022-11-28T01:56:21Z,42.805,6.029,13.3069,4.60135,2470.614,2022-11-28T03:58:20Z
2022-11-28T01:59:24Z,42.805,6.029,13.3054,4.60134,2470.6,2022-11-28T04:01:23Z
2022-11-28T02:02:27Z,42.805,6.029,13.3073,4.60104,2470.591,2022-11-28T04:04:26Z
2022-11-28T02:05:30Z,42.805,6.029,13.3078,4.60102,2470.553,2022-11-28T04:07:29Z
2022-11-28T02:08:33Z,42.805,6.029,13.3085,4.60129,2470.577,2022-11-28T04:10:32Z
2022-11-28T02:11:36Z,42.805,6.029,13.3081,4.60110,2470.614,2022-11-28T04:13:35Z
2022-11-28T02:14:39Z,42.805,6.029,13.3087,4.60115,2470.6,2022-11-28T04:16:38Z
2022-11-28T02:17:42Z,42.805,6.029,13.3085,4.60103,2470.577,2022-11-28T04:19:42Z
2022-11-28T02:20:45Z,42.805,6.029,13.3078,4.60117,2470.614,2022-11-28T04:22:45Z
2022-11-28T02:23:48Z,42.805,6.029,13.3091,4.60117,2470.567,2022-11-28T04:25:48Z
2022-11-28T02:26:51Z,42.805,6.029,13.3098,4.60115,2470.614,2022-11-28T04:28:51Z
2022-11-28T02:29:55Z,42.805,6.029,13.3098,4.60111,2470.591,2022-11-28T04:31:54Z
2022-11-28T02:32:58Z,42.805,6.029,13.3091,4.60111,2470.591,2022-11-28T04:34:57Z
2022-11-28T02:36:01Z,42.805,6.029,13.3102,4.60119,2470.567,2022-11-28T04:38:00Z
2022-11-28T02:39:04Z,42.805,6.029,13.3094,4.60149,2470.567,2022-11-28T04:41:03Z
2022-11-28T02:42:07Z,42.805,6.029,13.3078,4.60131,2470.567,2022-11-28T04:44:06Z
2022-11-28T02:45:10Z,42.805,6.029,13.3086,4.60126,2470.591,2022-11-28T04:47:09Z
2022-11-28T02:48:13Z,42.805,6.029,13.3084,4.60094,2470.567,2022-11-28T04:50:12Z
2022-11-28T02:51:16Z,42.805,6.029,13.3081,4.60130,2470.567,2022-11-28T04:53:15Z
2022-11-28T02:54:19Z,42.805,6.029,13.3099,4.60150,2470.544,2022-11-28T04:56:18Z
2022-11-28T02:57:22Z,42.805,6.029,13.3101,4.60134,2470.567,2022-11-28T04:59:22Z
2022-11-28T03:00:25Z,42.805,6.029,13.3106,4.60112,2470.553,2022-11-28T05:02:25Z
2022-11-28T03:03:28Z,42.805,6.029,13.3106,4.60105,2470.553,2022-11-28T05:05:28Z
2022-11-28T03:06:32Z,42.805,6.029,13.3096,4.60110,2470.567,2022-11-28T05:08:31Z
2022-11-28T03:09:35Z,42.805,6.029,13.3104,4.60098,2470.577,2022-11-28T05:11:34Z
2022-11-28T03:12:38Z,42.805,6.029,13.3101,4.60112,2470.553,2022-11-28T05:14:37Z
2022-11-28T03:15:41Z,42.805,6.029,13.3099,4.60108,2470.567,2022-11-28T05:17:40Z
2022-11-28T03:18:44Z,42.805,6.029,13.3098,4.60110,2470.567,2022-11-28T05:20:43Z
2022-11-28T03:21:47Z,42.805,6.029,13.3094,4.60102,2470.614,2022-11-28T05:23:46Z
2022-11-28T03:24:50Z,42.805,6.029,13.3093,4.60110,2470.577,2022-11-28T05:26:49Z
2022-11-28T03:27:53Z,42.805,6.029,13.3093,4.60104,2470.567,2022-11-28T05:29:52Z
2022-11-28T03:30:56Z,42.805,6.029,13.3096,4.60094,2470.567,2022-11-28T05:32:55Z
2022-11-28T03:33:59Z,42.805,6.029,13.3093,4.60110,2470.591,2022-11-28T05:35:59Z
2022-11-28T03:37:02Z,42.805,6.029,13.3115,4.60094,2470.614,2022-11-28T05:39:02Z
2022-11-28T03:40:05Z,42.805,6.029,13.3105,4.60094,2470.567,2022-11-28T05:42:05Z
2022-11-28T03:43:08Z,42.805,6.029,13.3096,4.60102,2470.577,2022-11-28T05:45:08Z
2022-11-28T03:46:12Z,42.805,6.029,13.3101,4.60103,2470.591,2022-11-28T05:48:11Z
2022-11-28T03:49:15Z,42.805,6.029,13.3101,4.60102,2470.567,2022-11-28T05:51:14Z
2022-11-28T03:52:18Z,42.805,6.029,13.3098,4.60102,2470.591,2022-11-28T05:54:17Z
2022-11-28T03:55:21Z,42.805,6.029,13.3073,4.60099,2470.591,2022-11-28T05:57:20Z
2022-11-28T03:58:24Z,42.805,6.029,13.3076,4.60092,2470.577,2022-11-28T06:00:23Z
2022-11-28T04:01:27Z,42.805,6.029,13.3063,4.60117,2470.591,2022-11-28T06:03:26Z
2022-11-28T04:04:30Z,42.805,6.029,13.3084,4.60140,2470.567,2022-11-28T06:06:29Z
2022-11-28T04:07:33Z,42.805,6.029,13.3078,4.60109,2470.591,2022-11-28T06:09:32Z
2022-11-28T04:10:36Z,42.805,6.029,13.3076,4.60091,2470.567,2022-11-28T06:12:35Z
2022-11-28T04:13:39Z,42.805,6.029,13.3070,4.60095,2470.544,2022-11-28T06:15:39Z
2022-11-28T04:16:42Z,42.805,6.029,13.3066,4.60097,2470.591,2022-11-28T06:18:42Z
2022-11-28T04:19:45Z,42.805,6.029,13.3081,4.60091,2470.567,2022-11-28T06:21:45Z
2022-11-28T04:22:49Z,42.805,6.029,13.3080,4.60102,2470.544,2022-11-28T06:24:48Z
2022-11-28T04:25:52Z,42.805,6.029,13.3071,4.60113,2470.577,2022-11-28T06:27:51Z
2022-11-28T04:28:55Z,42.805,6.029,13.3082,4.60097,2470.544,2022-11-28T06:30:54Z
2022-11-28T04:31:58Z,42.805,6.029,13.3074,4.60108,2470.577,2022-11-28T06:33:57Z
2022-11-28T04:35:01Z,42.805,6.029,13.3066,4.60113,2470.577,2022-11-28T06:37:00Z
2022-11-28T04:38:04Z,42.805,6.029,13.3069,4.60092,2470.577,2022-11-28T06:40:03Z
2022-11-28T04:41:07Z,42.805,6.029,13.3090,4.60112,2470.591,2022-11-28T06:43:06Z
2022-11-28T04:44:10Z,42.805,6.029,13.3062,4.60090,2470.591,2022-11-28T06:46:09Z
2022-11-28T04:47:13Z,42.805,6.029,13.3070,4.60096,2470.553,2022-11-28T06:49:12Z
2022-11-28T04:50:16Z,42.805,6.029,13.3070,4.60095,2470.53,2022-11-28T06:52:16Z
2022-11-28T04:53:19Z,42.805,6.029,13.3041,4.60099,2470.591,2022-11-28T06:55:19Z
2022-11-28T04:56:22Z,42.805,6.029,13.3029,4.60098,2470.53,2022-11-28T06:58:22Z
2022-11-28T04:59:25Z,42.805,6.029,13.3047,4.60090,2470.53,2022-11-28T07:01:25Z
2022-11-28T05:02:28Z,42.805,6.029,13.3026,4.60102,2470.577,2022-11-28T07:04:28Z
2022-11-28T05:05:32Z,42.805,6.029,13.3058,4.60099,2470.544,2022-11-28T07:07:31Z
2022-11-28T05:08:35Z,42.805,6.029,13.3055,4.60094,2470.53,2022-11-28T07:10:34Z
2022-11-28T05:11:38Z,42.805,6.029,13.3061,4.60102,2470.53,2022-11-28T07:13:37Z
2022-11-28T05:14:41Z,42.805,6.029,13.3106,4.60101,2470.577,2022-11-28T07:16:40Z
2022-11-28T05:17:44Z,42.805,6.029,13.3085,4.60095,2470.553,2022-11-28T07:19:43Z
2022-11-28T05:20:47Z,42.805,6.029,13.3035,4.60093,2470.553,2022-11-28T07:22:46Z
2022-11-28T05:23:50Z,42.805,6.029,13.3013,4.60103,2470.567,2022-11-28T07:25:49Z
2022-11-28T05:26:53Z,42.805,6.029,13.3019,4.60080,2470.567,2022-11-28T07:28:52Z
2022-11-28T05:29:56Z,42.805,6.029,13.3015,4.60091,2470.567,2022-11-28T07:31:56Z
2022-11-28T05:32:59Z,42.805,6.029,13.3015,4.60103,2470.577,2022-11-28T07:34:59Z
2022-11-28T05:36:02Z,42.805,6.029,13.3017,4.60083,2470.577,2022-11-28T07:38:02Z
2022-11-28T05:39:05Z,42.805,6.029,13.3019,4.60077,2470.577,2022-11-28T07:41:05Z
2022-11-28T05:42:08Z,42.805,6.029,13.3015,4.60080,2470.591,2022-11-28T07:44:08Z
2022-11-28T05:45:12Z,42.805,6.029,13.3019,4.60083,2470.577,2022-11-28T07:47:11Z
2022-11-28T05:48:15Z,42.805,6.029,13.3018,4.60082,2470.591,2022-11-28T07:50:14Z
2022-11-28T05:51:18Z,42.805,6.029,13.3016,4.60081,2470.591,2022-11-28T07:53:17Z
2022-11-28T05:54:21Z,42.805,6.029,13.3014,4.60072,2470.577,2022-11-28T07:56:20Z
2022-11-28T05:57:24Z,42.805,6.029,13.3016,4.60072,2470.614,2022-11-28T07:59:23Z
2022-11-28T06:00:27Z,42.805,6.029,13.3015,4.60073,2470.577,2022-11-28T08:02:26Z
2022-11-28T06:03:30Z,42.805,6.029,13.3017,4.60079,2470.591,2022-11-28T08:05:29Z
2022-11-28T06:06:33Z,42.805,6.029,13.3016,4.60073,2470.577,2022-11-28T08:08:32Z
2022-11-28T06:09:36Z,42.805,6.029,13.3019,4.60081,2470.577,2022-11-28T08:11:35Z
2022-11-28T06:12:39Z,42.805,6.029,13.3017,4.60087,2470.624,2022-11-28T08:14:39Z
2022-11-28T06:15:42Z,42.805,6.029,13.3019,4.60075,2470.6,2022-11-28T08:17:42Z
2022-11-28T06:18:45Z,42.805,6.029,13.3015,4.60078,2470.591,2022-11-28T08:20:45Z
2022-11-28T06:21:49Z,42.805,6.029,13.3019,4.60082,2470.614,2022-11-28T08:23:48Z
2022-11-28T06:24:52Z,42.805,6.029,13.3018,4.60074,2470.6,2022-11-28T08:26:51Z
2022-11-28T06:27:55Z,42.805,6.029,13.3012,4.60074,2470.624,2022-11-28T08:29:54Z
2022-11-28T06:30:58Z,42.805,6.029,13.3017,4.60072,2470.614,2022-11-28T08:32:57Z
2022-11-28T06:34:01Z,42.805,6.029,13.3014,4.60072,2470.637,2022-11-28T08:36:00Z
2022-11-28T06:37:04Z,42.805,6.029,13.3020,4.60071,2470.6,2022-11-28T08:39:03Z
2022-11-28T06:40:07Z,42.805,6.029,13.3012,4.60072,2470.624,2022-11-28T08:42:06Z
2022-11-28T06:43:10Z,42.805,6.029,13.3015,4.60069,2470.624,2022-11-28T08:45:09Z
2022-11-28T06:46:13Z,42.805,6.029,13.3019,4.60069,2470.661,2022-11-28T08:48:12Z
2022-11-28T06:49:16Z,42.805,6.029,13.3015,4.60068,2470.646,2022-11-28T08:51:16Z
2022-11-28T06:52:19Z,42.805,6.029,13.3015,4.60069,2470.661,2022-11-28T08:54:19Z
2022-11-28T06:55:22Z,42.805,6.029,13.3017,4.60069,2470.624,2022-11-28T08:57:22Z
2022-11-28T06:58:25Z,42.805,6.029,13.3018,4.60069,2470.646,2022-11-28T09:00:25Z
2022-11-28T07:01:29Z,42.805,6.029,13.3018,4.60067,2470.646,2022-11-28T09:03:28Z
2022-11-28T07:04:32Z,42.805,6.029,13.3017,4.60068,2470.684,2022-11-28T09:06:31Z
2022-11-28T07:07:35Z,42.805,6.029,13.3017,4.60069,2470.646,2022-11-28T09:09:34Z
2022-11-28T07:10:38Z,42.805,6.029,13.3018,4.60067,2470.661,2022-11-28T09:12:37Z
2022-11-28T07:13:41Z,42.805,6.029,13.3015,4.60069,2470.684,2022-11-28T09:15:40Z
2022-11-28T07:16:44Z,42.805,6.029,13.3018,4.60069,2470.684,2022-11-28T09:18:43Z
2022-11-28T07:19:47Z,42.805,6.029,13.3018,4.60070,2470.684,2022-11-28T09:21:46Z
2022-11-28T07:22:50Z,42.805,6.029,13.3015,4.60068,2470.693,2022-11-28T09:24:49Z
2022-11-28T07:25:53Z,42.805,6.029,13.3015,4.60067,2470.693,2022-11-28T09:27:52Z
2022-11-28T07:28:56Z,42.805,6.029,13.3019,4.60068,2470.707,2022-11-28T09:30:56Z
2022-11-28T07:31:59Z,42.805,6.029,13.3016,4.60068,2470.707,2022-11-28T09:33:59Z
2022-11-28T07:35:02Z,42.805,6.029,13.3015,4.60068,2470.684,2022-11-28T09:37:02Z
2022-11-28T07:38:05Z,42.805,6.029,13.3021,4.60069,2470.693,2022-11-28T09:40:05Z
2022-11-28T07:41:09Z,42.805,6.029,13.3016,4.60069,2470.73,2022-11-28T09:43:08Z
2022-11-28T07:44:12Z,42.805,6.029,13.3019,4.60068,2470.754,2022-11-28T09:46:11Z
2022-11-28T07:47:15Z,42.805,6.029,13.3017,4.60069,2470.74,2022-11-28T09:49:14Z
2022-11-28T07:50:18Z,42.805,6.029,13.3015,4.60070,2470.73,2022-11-28T09:52:17Z
2022-11-28T07:53:21Z,42.805,6.029,13.3015,4.60068,2470.707,2022-11-28T09:55:20Z
2022-11-28T07:56:24Z,42.805,6.029,13.3019,4.60068,2470.717,2022-11-28T09:58:23Z
2022-11-28T07:59:27Z,42.805,6.029,13.3014,4.60069,2470.717,2022-11-28T10:01:26Z
2022-11-28T08:02:30Z,42.805,6.029,13.3019,4.60069,2470.693,2022-11-28T10:04:29Z
2022-11-28T08:05:33Z,42.805,6.029,13.3016,4.60069,2470.717,2022-11-28T10:07:33Z
2022-11-28T08:08:36Z,42.805,6.029,13.3019,4.60068,2470.754,2022-11-28T10:10:36Z
2022-11-28T08:11:39Z,42.805,6.029,13.3021,4.60068,2470.717,2022-11-28T10:13:39Z
2022-11-28T08:14:42Z,42.805,6.029,13.3019,4.60069,2470.763,2022-11-28T10:16:42Z
2022-11-28T08:17:46Z,42.805,6.029,13.3019,4.60069,2470.754,2022-11-28T10:19:45Z
2022-11-28T08:20:49Z,42.805,6.029,13.3019,4.60067,2470.777,2022-11-28T10:22:48Z
2022-11-28T08:23:52Z,42.805,6.029,13.3015,4.60068,2470.754,2022-11-28T10:25:51Z
2022-11-28T08:26:55Z,42.805,6.029,13.3019,4.60067,2470.777,2022-11-28T10:28:54Z
2022-11-28T08:29:58Z,42.805,6.029,13.3017,4.60069,2470.777,2022-11-28T10:31:57Z
2022-11-28T08:33:01Z,42.805,6.029,13.3021,4.60070,2470.763,2022-11-28T10:35:00Z
2022-11-28T08:36:04Z,42.805,6.029,13.3024,4.60069,2470.777,2022-11-28T10:38:03Z
2022-11-28T08:39:07Z,42.805,6.029,13.3018,4.60069,2470.717,2022-11-28T10:41:06Z
2022-11-28T08:42:10Z,42.805,6.029,13.3016,4.60069,2470.726,2022-11-28T10:44:09Z
2022-11-28T08:45:13Z,42.805,6.029,13.3019,4.60069,2470.717,2022-11-28T10:47:13Z
2022-11-28T08:48:16Z,42.805,6.029,13.3019,4.60072,2470.754,2022-11-28T10:50:16Z
2022-11-28T08:51:19Z,42.805,6.029,13.3017,4.60072,2470.787,2022-11-28T10:53:19Z
2022-11-28T08:54:23Z,42.805,6.029,13.3019,4.60073,2470.777,2022-11-28T10:56:22Z
2022-11-28T08:57:26Z,42.805,6.029,13.3015,4.60071,2470.763,2022-11-28T10:59:25Z
2022-11-28T09:00:29Z,42.805,6.029,13.3011,4.60070,2470.754,2022-11-28T11:02:28Z
2022-11-28T09:03:32Z,42.805,6.029,13.3019,4.60072,2470.777,2022-11-28T11:05:31Z
2022-11-28T09:06:35Z,42.805,6.029,13.3017,4.60070,2470.787,2022-11-28T11:08:34Z
2022-11-28T09:09:38Z,42.805,6.029,13.3017,4.60074,2470.763,2022-11-28T11:11:37Z
2022-11-28T09:12:41Z,42.805,6.029,13.3019,4.60069,2470.777,2022-11-28T11:14:40Z
2022-11-28T09:15:44Z,42.805,6.029,13.3019,4.60070,2470.754,2022-11-28T11:17:43Z
2022-11-28T09:18:47Z,42.805,6.029,13.3018,4.60071,2470.81,2022-11-28T11:20:47Z
2022-11-28T09:21:50Z,42.805,6.029,13.3019,4.60069,2470.787,2022-11-28T11:23:50Z
2022-11-28T09:24:53Z,42.805,6.029,13.3013,4.60069,2470.787,2022-11-28T11:26:53Z
2022-11-28T09:27:56Z,42.805,6.029,13.3021,4.60072,2470.787,2022-11-28T11:29:56Z
2022-11-28T09:31:00Z,42.805,6.029,13.3015,4.60072,2470.777,2022-11-28T11:32:59Z
2022-11-28T09:34:03Z,42.805,6.029,13.3016,4.60070,2470.8,2022-11-28T11:36:02Z
2022-11-28T09:37:06Z,42.805,6.029,13.3018,4.60069,2470.787,2022-11-28T11:39:05Z
2022-11-28T09:40:09Z,42.805,6.029,13.3020,4.60069,2470.8,2022-11-28T11:42:08Z
2022-11-28T09:43:12Z,42.805,6.029,13.3019,4.60068,2470.777,2022-11-28T11:45:11Z
2022-11-28T09:46:15Z,42.805,6.029,13.3020,4.60070,2470.763,2022-11-28T11:48:14Z
2022-11-28T09:49:18Z,42.805,6.029,13.3019,4.60067,2470.787,2022-11-28T11:51:17Z
2022-11-28T09:52:21Z,42.805,6.029,13.3018,4.60067,2470.787,2022-11-28T11:54:20Z
2022-11-28T09:55:24Z,42.805,6.029,13.3020,4.60072,2470.824,2022-11-28T11:57:24Z
2022-11-28T09:58:27Z,42.805,6.029,13.3018,4.60072,2470.787,2022-11-28T12:00:27Z
2022-11-28T10:01:30Z,42.805,6.029,13.3021,4.60070,2470.787,2022-11-28T12:03:30Z
2022-11-28T10:04:33Z,42.805,6.029,13.3016,4.60069,2470.763,2022-11-28T12:06:33Z
2022-11-28T10:07:37Z,42.805,6.029,13.3014,4.60067,2470.8,2022-11-28T12:09:36Z
2022-11-28T10:10:40Z,42.805,6.029,13.3017,4.60072,2470.787,2022-11-28T12:12:39Z
2022-11-28T10:13:43Z,42.805,6.029,13.3021,4.60072,2470.8,2022-11-28T12:15:42Z
2022-11-28T10:16:46Z,42.805,6.029,13.3022,4.60070,2470.81,2022-11-28T12:18:45Z
2022-11-28T10:19:49Z,42.805,6.029,13.3017,4.60067,2470.787,2022-11-28T12:21:48Z
2022-11-28T10:22:52Z,42.805,6.029,13.3024,4.60066,2470.8,2022-11-28T12:24:51Z
2022-11-28T10:25:55Z,42.805,6.029,13.3015,4.60069,2470.8,2022-11-28T12:27:54Z
2022-11-28T10:28:58Z,42.805,6.029,13.3017,4.60067,2470.787,2022-11-28T12:30:57Z
2022-11-28T10:32:01Z,42.805,6.029,13.3020,4.60069,2470.824,2022-11-28T12:34:01Z
2022-11-28T10:35:04Z,42.805,6.029,13.3015,4.60069,2470.787,2022-11-28T12:37:04Z
2022-11-28T10:38:07Z,42.805,6.029,13.3015,4.60067,2470.787,2022-11-28T12:40:07Z
2022-11-28T10:41:10Z,42.805,6.029,13.3021,4.60073,2470.787,2022-11-28T12:43:10Z
2022-11-28T10:44:14Z,42.805,6.029,13.3024,4.60069,2470.81,2022-11-28T12:46:13Z
2022-11-28T10:47:17Z,42.805,6.029,13.3020,4.60067,2470.824,2022-11-28T12:49:16Z
2022-11-28T10:50:20Z,42.805,6.029,13.3021,4.60069,2470.787,2022-11-28T12:52:19Z
2022-11-28T10:53:23Z,42.805,6.029,13.3023,4.60072,2470.763,2022-11-28T12:55:22Z
2022-11-28T10:56:26Z,42.805,6.029,13.3016,4.60067,2470.777,2022-11-28T12:58:25Z
2022-11-28T10:59:29Z,42.805,6.029,13.3021,4.60068,2470.787,2022-11-28T13:01:28Z
2022-11-28T11:02:32Z,42.805,6.029,13.3019,4.60069,2470.787,2022-11-28T13:04:31Z
2022-11-28T11:05:35Z,42.805,6.029,13.3023,4.60068,2470.787,2022-11-28T13:07:34Z
2022-11-28T11:08:38Z,42.805,6.029,13.3020,4.60067,2470.763,2022-11-28T13:10:37Z
2022-11-28T11:11:41Z,42.805,6.029,13.3019,4.60067,2470.787,2022-11-28T13:13:41Z
2022-11-28T11:14:44Z,42.805,6.029,13.3021,4.60067,2470.787,2022-11-28T13:16:44Z
2022-11-28T11:17:47Z,42.805,6.029,13.3017,4.60067,2470.8,2022-11-28T13:19:47Z
2022-11-28T11:20:51Z,42.805,6.029,13.3021,4.60067,2470.763,2022-11-28T13:22:50Z
2022-11-28T11:23:54Z,42.805,6.029,13.3018,4.60067,2470.8,2022-11-28T13:25:53Z
2022-11-28T11:26:57Z,42.805,6.029,13.3020,4.60067,2470.763,2022-11-28T13:28:56Z
2022-11-28T11:30:00Z,42.805,6.029,13.3021,4.60074,2470.787,2022-11-28T13:31:59Z
2022-11-28T11:33:03Z,42.805,6.029,13.3020,4.60070,2470.763,2022-11-28T13:35:02Z
2022-11-28T11:36:06Z,42.805,6.029,13.3020,4.60068,2470.763,2022-11-28T13:38:05Z
2022-11-28T11:39:09Z,42.805,6.029,13.3018,4.60069,2470.787,2022-11-28T13:41:08Z
2022-11-28T11:42:12Z,42.805,6.029,13.3016,4.60069,2470.8,2022-11-28T13:44:11Z
2022-11-28T11:45:15Z,42.805,6.029,13.3019,4.60067,2470.787,2022-11-28T13:47:15Z
2022-11-28T11:48:18Z,42.805,6.029,13.3021,4.60067,2470.777,2022-11-28T13:50:18Z
2022-11-28T11:51:21Z,42.805,6.029,13.3020,4.60067,2470.763,2022-11-28T13:53:21Z
2022-11-28T11:54:24Z,42.805,6.029,13.3015,4.60067,2470.773,2022-11-28T13:56:24Z
2022-11-28T11:57:28Z,42.805,6.029,13.3019,4.60068,2470.8,2022-11-28T13:59:27Z
2022-11-28T12:00:31Z,42.805,6.029,13.3019,4.60066,2470.763,2022-11-28T14:02:30Z
2022-11-28T12:03:34Z,42.805,6.029,13.3019,4.60072,2470.777,2022-11-28T14:05:33Z
2022-11-28T12:06:37Z,42.805,6.029,13.3019,4.60067,2470.763,2022-11-28T14:08:36Z
2022-11-28T12:09:40Z,42.805,6.029,13.3017,4.60069,2470.777,2022-11-28T14:11:39Z
2022-11-28T12:12:43Z,42.805,6.029,13.3022,4.60067,2470.763,2022-11-28T14:14:42Z
2022-11-28T12:15:46Z,42.805,6.029,13.3019,4.60078,2470.754,2022-11-28T14:17:45Z
2022-11-28T12:18:49Z,42.805,6.029,13.3021,4.60070,2470.74,2022-11-28T14:20:48Z
2022-11-28T12:21:52Z,42.805,6.029,13.3019,4.60077,2470.8,2022-11-28T14:23:51Z
2022-11-28T12:24:55Z,42.805,6.029,13.3021,4.60067,2470.777,2022-11-28T14:26:55Z
2022-11-28T12:27:58Z,42.805,6.029,13.3022,4.60070,2470.74,2022-11-28T14:29:58Z
2022-11-28T12:31:01Z,42.805,6.029,13.3021,4.60066,2470.754,2022-11-28T14:33:01Z
2022-11-28T12:34:05Z,42.805,6.029,13.3024,4.60067,2470.777,2022-11-28T14:36:04Z
2022-11-28T12:37:08Z,42.805,6.029,13.3019,4.60067,2470.787,2022-11-28T14:39:07Z
2022-11-28T12:40:11Z,42.805,6.029,13.3024,4.60072,2470.74,2022-11-28T14:42:10Z
2022-11-28T12:43:14Z,42.805,6.029,13.3017,4.60072,2470.763,2022-11-28T14:45:13Z
2022-11-28T12:46:17Z,42.805,6.029,13.3016,4.60068,2470.74,2022-11-28T14:48:16Z
2022-11-28T12:49:20Z,42.805,6.029,13.3017,4.60068,2470.717,2022-11-28T14:51:19Z
2022-11-28T12:52:23Z,42.805,6.029,13.3020,4.60066,2470.74,2022-11-28T14:54:22Z
2022-11-28T12:55:26Z,42.805,6.029,13.3019,4.60067,2470.754,2022-11-28T14:57:25Z
2022-11-28T12:58:29Z,42.805,6.029,13.3023,4.60066,2470.73,2022-11-28T15:00:29Z
2022-11-28T13:01:32Z,42.805,6.029,13.3020,4.60069,2470.777,2022-11-28T15:03:32Z
2022-11-28T13:04:35Z,42.805,6.029,13.3017,4.60067,2470.73,2022-11-28T15:06:35Z
2022-11-28T13:07:38Z,42.805,6.029,13.3020,4.60067,2470.74,2022-11-28T15:09:38Z
2022-11-28T13:10:41Z,42.805,6.029,13.3020,4.60066,2470.754,2022-11-28T15:12:41Z
2022-11-28T13:13:45Z,42.805,6.029,13.3017,4.60072,2470.717,2022-11-28T15:15:44Z
2022-11-28T13:16:48Z,42.805,6.029,13.3019,4.60067,2470.73,2022-11-28T15:18:47Z
2022-11-28T13:19:51Z,42.805,6.029,13.3019,4.60066,2470.73,2022-11-28T15:21:50Z
2022-11-28T13:22:54Z,42.805,6.029,13.3020,4.60067,2470.73,2022-11-28T15:24:53Z
2022-11-28T13:25:57Z,42.805,6.029,13.3021,4.60074,2470.73,2022-11-28T15:27:56Z
2022-11-28T13:29:00Z,42.805,6.029,13.3019,4.60069,2470.73,2022-11-28T15:30:59Z
2022-11-28T13:32:03Z,42.805,6.029,13.3019,4.60073,2470.707,2022-11-28T15:34:02Z
2022-11-28T13:35:06Z,42.805,6.029,13.3020,4.60068,2470.707,2022-11-28T15:37:05Z
2022-11-28T13:38:09Z,42.805,6.029,13.3019,4.60069,2470.73,2022-11-28T15:40:09Z
2022-11-28T13:41:12Z,42.805,6.029,13.3019,4.60069,2470.717,2022-11-28T15:43:12Z
2022-11-28T13:44:15Z,42.805,6.029,13.3024,4.60068,2470.693,2022-11-28T15:46:15Z
2022-11-28T13:47:19Z,42.805,6.029,13.3019,4.60067,2470.717,2022-11-28T15:49:18Z
2022-11-28T13:50:22Z,42.805,6.029,13.3019,4.60068,2470.754,2022-11-28T15:52:21Z
2022-11-28T13:53:25Z,42.805,6.029,13.3019,4.60066,2470.73,2022-11-28T15:55:24Z
2022-11-28T13:56:28Z,42.805,6.029,13.3020,4.60067,2470.717,2022-11-28T15:58:27Z
2022-11-28T13:59:31Z,42.805,6.029,13.3020,4.60067,2470.717,2022-11-28T16:01:30Z
2022-11-28T14:02:34Z,42.805,6.029,13.3021,4.60074,2470.73,2022-11-28T16:04:33Z
2022-11-28T14:05:37Z,42.805,6.029,13.3017,4.60069,2470.717,2022-11-28T16:07:36Z
2022-11-28T14:08:40Z,42.805,6.029,13.3021,4.60075,2470.73,2022-11-28T16:10:39Z
2022-11-28T14:11:43Z,42.805,6.029,13.3021,4.60067,2470.693,2022-11-28T16:13:42Z
2022-11-28T14:14:46Z,42.805,6.029,13.3017,4.60070,2470.717,2022-11-28T16:16:46Z
2022-11-28T14:17:49Z,42.805,6.029,13.3022,4.60067,2470.707,2022-11-28T16:19:49Z
2022-11-28T14:20:52Z,42.805,6.029,13.3021,4.60067,2470.707,2022-11-28T16:22:52Z
2022-11-28T14:23:55Z,42.805,6.029,13.3015,4.60069,2470.693,2022-11-28T16:25:55Z
2022-11-28T14:26:59Z,42.805,6.029,13.3021,4.60069,2470.693,2022-11-28T16:28:58Z
2022-11-28T14:30:02Z,42.805,6.029,13.3018,4.60075,2470.693,2022-11-28T16:32:01Z
2022-11-28T14:33:05Z,42.805,6.029,13.3016,4.60069,2470.693,2022-11-28T16:35:04Z
2022-11-28T14:36:08Z,42.805,6.029,13.3016,4.60069,2470.707,2022-11-28T16:38:07Z
2022-11-28T14:39:11Z,42.805,6.029,13.3020,4.60072,2470.693,2022-11-28T16:41:10Z
2022-11-28T14:42:14Z,42.805,6.029,13.3016,4.60068,2470.693,2022-11-28T16:44:13Z
2022-11-28T14:45:17Z,42.805,6.029,13.3019,4.60067,2470.67,2022-11-28T16:47:16Z
2022-11-28T14:48:20Z,42.805,6.029,13.3019,4.60068,2470.693,2022-11-28T16:50:19Z
2022-11-28T14:51:23Z,42.805,6.029,13.3018,4.60069,2470.67,2022-11-28T16:53:23Z
2022-11-28T14:54:26Z,42.805,6.029,13.3020,4.60068,2470.717,2022-11-28T16:56:26Z
2022-11-28T14:57:29Z,42.805,6.029,13.3019,4.60072,2470.693,2022-11-28T16:59:29Z
2022-11-28T15:00:32Z,42.805,6.029,13.3019,4.60067,2470.707,2022-11-28T17:02:32Z